Dewpoint
56 56 65 69 69 69 70 70 70 70 70 69 69 68 70 70 69 68 68 67 66 66 66 65 64 66 67 68 68 69 68 68 68 69 70 70 70 69 70 70 70 69 71
52 51 63 68 69 69 69 70 70 70 71 70 70 70 70 70 70 69 68 68 67 66 65 65 64 64 66 67 67 67 67 68 68 68 70 69 70 68 69 70 71 70 71
45 48 55 67 67 67 68 69 69 69 69 69 70 70 69 69 69 69 69 68 68 67 66 66 65 65 64 64 66 67 67 67 68 68 69 67 66 69 69 69 69 70 70
41 44 56 66 66 66 65 65 66 66 66 66 67 69 69 68 68 68 68 68 68 68 68 67 66 66 66 65 65 66 66 66 66 67 65 66 66 67 68 67 68 70 70
39 42 56 65 65 65 65 65 65 65 65 65 66 66 68 68 68 68 68 68 68 67 67 67 67 67 67 67 66 66 66 65 64 63 64 66 67 68 66 66 67 69 69
37 38 52 63 63 62 62 63 63 63 64 64 64 65 66 67 67 67 67 67 67 67 67 67 67 67 67 67 67 67 67 66 63 60 61 63 65 68 69 67 68 68 68
35 36 41 59 61 60 60 60 60 61 61 61 61 62 63 64 64 64 64 64 65 65 66 66 67 67 67 67 67 66 67 67 64 61 61 61 62 65 68 68 68 68 67
33 34 35 45 55 57 58 57 57 57 57 57 57 58 59 60 61 61 61 62 63 63 64 65 65 66 67 67 67 67 67 66 63 62 62 61 62 66 66 68 67 67 66
30 32 33 35 41 47 51 52 52 52 51 51 51 51 51 53 55 56 56 58 60 61 62 62 63 63 65 67 67 67 67 66 64 62 60 60 62 65 67 67 68 67 66
29 29 29 31 33 34 34 44 46 46 45 44 44 43 41 42 45 47 48 50 53 55 57 59 60 60 60 61 63 64 65 65 64 64 63 60 63 64 66 67 67 68 68
28 27 27 27 29 30 29 31 33 37 38 37 33 36 29 25 32 32 41 43 45 46 48 51 54 55 56 56 58 59 62 62 63 63 63 65 66 65 64 65 66 67 68
24 24 25 26 27 28 24 27 23 21 23 22 21 20 19 21 25 29 34 38 39 41 40 43 45 46 44 48 52 55 54 56 59 61 63 65 66 67 65 64 66 67 67
23 24 25 25 24 25 26 25 25 21 22 22 22 19 19 18 21 23 26 28 27 31 27 28 28 29 30 42 43 48 52 55 55 56 59 62 64 66 67 64 64 67 67
24 25 24 24 23 23 25 24 23 23 21 21 21 20 18 20 18 20 21 24 24 25 24 25 25 26 27 34 33 39 43 48 53 54 55 59 60 63 64 67 65 67 67
22 24 24 24 23 22 23 23 23 22 21 21 22 21 20 19 18 20 20 22 21 23 23 22 22 22 22 29 27 29 31 39 44 49 51 56 57 59 62 64 66 65 66
22 23 23 23 23 23 22 22 22 22 22 21 21 22 21 20 18 20 20 20 20 22 22 21 21 21 22 22 19 21 30 35 35 33 40 48 55 57 59 62 64 66 65
21 23 22 21 23 22 23 22 22 22 22 21 20 20 20 21 19 19 20 19 21 21 21 21 20 20 20 17 16 20 25 23 26 28 31 42 49 55 58 59 63 64 65
21 20 22 20 21 21 21 22 19 21 21 20 20 19 19 19 20 19 21 19 20 21 21 21 20 20 19 17 17 21 18 16 15 21 35 42 45 47 53 57 59 61 63
20 20 21 21 20 20 19 21 20 21 19 20 18 18 19 18 19 19 21 20 20 21 20 21 19 19 19 18 19 18 16 17 20 18 18 21 29 38 45 53 57 59 61
18 18 20 19 20 19 19 19 19 18 19 20 18 17 18 17 18 19 19 20 21 20 19 19 18 19 19 20 18 14 20 20 20 21 25 29 38 47 50 52 54 55 59
19 16 17 18 19 19 17 16 17 15 18 17 17 18 17 17 18 18 19 19 19 19 18 18 18 18 19 21 17 19 16 16 24 35 37 35 45 37 34 36 45 51 54
16 17 16 17 17 18 18 18 17 17 17 18 17 17 17 17 18 16 18 18 18 18 18 18 19 19 20 19 18 18 16 9 26 18 14 25 26 22 20 30 39 38 47
13 15 16 17 17 17 18 18 16 16 15 14 14 15 17 17 18 19 18 18 18 19 19 19 19 19 17 19 19 20 16 11 19 13 17 12 17 16 16 27 23 23 31
13 15 17 16 17 15 17 15 13 12 11 12 15 16 16 16 17 19 19 18 18 19 18 18 17 18 19 17 19 17 19 20 16 12 11 14 16 13 20 22 19 18 24
13 13 15 15 15 15 15 14 14 12 14 15 16 14 14 16 17 17 18 18 17 18 18 18 18 18 19 18 18 19 18 19 18 18 15 15 17 17 17 17 19 21 16
13 12 13 13 13 14 14 13 13 13 13 13 12 13 14 15 16 16 16 17 17 17 17 18 18 18 18 18 18 18 18 17 16 15 16 16 17 16 17 17 18 22 27
Lifted_Index
-0 -0 -1 -2 -3 -4 -4 -4 -4 -4 -4 -4 -3 -3 -3 -3 -3 -2 -2 -1 -0 0 1 1 2 1 0 -0 -1 -1 -1 -1 -1 -1 -2 -2 -3 -3 -3 -3 -3 -3 -4
0 -0 -1 -1 -2 -3 -4 -4 -4 -4 -4 -4 -3 -3 -3 -3 -3 -2 -2 -2 -1 -0 0 1 2 2 1 0 -0 -1 -1 -1 -1 -1 -2 -2 -2 -3 -3 -3 -3 -3 -4
1 1 0 -0 -1 -2 -2 -2 -2 -2 -2 -2 -3 -3 -3 -3 -2 -2 -2 -2 -1 -1 -0 0 1 1 1 1 1 0 -0 -0 -0 -1 -1 -2 -2 -2 -2 -2 -3 -3 -4
2 2 2 1 0 -0 -1 -1 -0 -0 0 -0 -1 -2 -2 -2 -2 -2 -2 -2 -2 -1 -1 -0 -0 0 1 1 1 0 0 1 0 0 -0 -1 -2 -2 -2 -2 -3 -3 -4
5 5 4 3 2 2 1 1 1 2 2 1 1 -0 -1 -1 -1 -1 -1 -1 -1 -1 -1 -1 -1 -1 -0 -0 -0 -0 0 1 2 2 1 -0 -1 -2 -2 -2 -2 -3 -3
6 7 6 5 4 4 4 4 4 4 4 3 3 2 1 1 0 0 0 0 0 -0 -0 -1 -1 -1 -1 -1 -1 -1 -0 1 2 3 2 2 0 -1 -2 -2 -3 -3 -3
6 7 7 7 6 6 7 6 6 6 6 6 5 5 4 3 3 3 3 2 2 1 1 1 0 -0 -1 -1 -1 -1 -1 0 2 2 3 3 2 0 -1 -2 -2 -2 -2
7 7 7 8 8 8 8 8 8 8 8 8 8 7 6 6 6 6 5 5 4 4 3 3 2 1 0 -0 -1 -1 -0 0 1 2 3 3 3 1 -0 -1 -2 -1 -1
8 8 8 8 8 8 8 8 9 9 9 9 8 8 8 8 8 7 7 7 6 6 5 5 4 3 2 1 0 0 0 0 1 1 2 3 3 1 -0 -1 -1 -1 -1
8 8 8 9 9 9 9 9 9 9 9 9 9 9 9 9 9 8 8 8 7 7 6 6 6 5 4 3 2 2 1 1 1 1 1 2 2 1 -0 -1 -1 -2 -2
7 8 9 9 9 9 9 9 9 9 9 9 9 9 9 9 9 9 9 9 8 8 7 7 7 6 6 5 4 3 3 2 2 1 1 1 1 1 0 -0 -1 -1 -2
6 7 9 10 11 11 10 10 10 10 10 10 10 11 11 11 11 10 10 10 10 9 9 9 8 8 7 6 6 5 4 4 3 2 2 1 1 0 0 0 -0 -1 -2
7 9 11 12 12 12 12 12 12 12 13 13 13 14 13 13 13 12 12 12 11 11 11 10 10 9 9 8 7 7 6 5 4 4 3 2 1 0 -0 -0 -0 -1 -2
10 11 13 15 15 15 15 15 15 16 16 17 17 17 17 16 16 15 15 14 14 14 13 13 12 11 11 10 9 9 8 7 6 6 5 4 3 1 1 -0 -1 -1 -2
13 14 16 17 18 18 18 18 19 19 20 20 20 20 20 19 19 18 18 18 18 17 17 16 15 14 13 12 12 11 10 9 8 8 7 6 5 3 2 1 -0 -1 -1
16 17 19 20 20 20 21 21 21 21 22 22 22 22 22 21 21 21 21 20 21 21 20 19 18 17 16 15 14 13 12 11 10 10 9 8 7 6 4 2 1 -0 -1
19 20 20 21 22 22 22 22 22 22 23 23 23 23 23 23 23 22 22 22 22 22 22 21 20 19 19 18 16 15 15 14 12 11 11 10 9 8 6 4 2 1 -0
21 21 22 22 22 22 23 23 23 23 23 23 24 24 24 24 24 23 23 23 23 23 23 22 21 20 19 19 18 17 16 16 14 13 12 12 11 10 8 6 4 3 1
22 22 22 23 23 23 23 23 24 24 24 24 24 24 24 25 25 24 24 24 24 24 23 23 22 21 20 19 18 17 17 16 16 15 14 13 12 11 9 8 6 4 4
23 23 23 23 23 23 23 23 23 23 24 24 25 25 26 26 26 26 26 26 26 25 24 23 23 21 20 19 18 17 16 16 16 16 15 14 13 11 9 8 7 6 5
22 23 23 23 23 23 23 23 23 23 24 25 25 26 27 27 27 27 27 27 26 26 25 24 24 22 21 21 19 17 16 15 16 16 15 14 12 10 9 8 8 7 6
22 22 23 23 23 24 24 23 23 23 24 25 26 26 27 28 28 28 28 27 27 26 26 25 24 23 22 21 20 17 15 14 15 16 16 15 14 11 9 8 8 7 7
21 22 23 24 24 24 25 25 24 24 24 25 26 26 27 28 28 28 28 27 27 26 25 24 24 23 22 21 21 19 16 15 15 16 16 17 16 14 12 10 9 8 8
22 23 24 24 25 25 25 25 25 24 25 25 26 27 27 28 28 28 28 27 26 25 24 24 23 22 22 21 21 20 19 18 16 15 16 17 17 17 16 14 13 12 12
23 24 24 25 25 25 26 26 25 25 25 26 27 27 27 27 28 27 27 26 25 24 23 23 22 22 21 21 20 20 20 20 18 17 16 17 18 18 18 17 16 16 16
23 24 24 25 25 25 26 26 26 26 26 27 27 27 27 27 27 27 26 25 23 23 22 22 22 21 21 20 20 20 20 19 19 18 17 17 18 19 19 18 18 18 18